Location: Mohawk View
(42.7837°N, 73.7885°W)
Time: 15:58:30
(UTC+00:00)

Cosmos 1441 Rocket - Pass Details

Date: 17 June 2021
Orbit: 495 x 539 km, 81.1° (Epoch: 01 August)

Event Time Altitude Azimuth Distance (km) Brightness Sun altitude
Exits shadow 05:13:39 31° 286° (WNW) 933 4.5 -23.7°
Drops below altitude 10° 05:17:06 10° 350° (N) 1,754 6.9 -23.7°
Sets 05:19:24 0° 1° (N) 2,638 8.2 -23.6°
